Погода Пудино

Погода Пудино : погода сейчас, прогноз погоды и архив. Всё, что Вы хотите узнать о погоде Пудино!

Хотите узнать прогноз погоды Пудино? Тогда Вам сюда: Погода Пудино

Поиск расширенной информации на нашем сайте:

Другие новости

Новости СМИ2

Главная страница сайта

Новости сайта

03.07.2017

Напоминаем, что на нашем специализированном сайте Метеоцентр.Азия вы можете получить высокодетализированные автоматические прогнозы погоды по пунктам России, СНГ и мира в авиационном формате (включающие направление и скорость ветра, видимость, явления погоды, количество и форму облачности, нижнюю и верхнюю границу облачности).


Погода Пудино - сегодня

Время (UTC), дата Ветер
(°,м/с) 
Видим.   Явления Облачность Т
(°С)
Тd
(°С)
f(%) Тe
(°С)
Pmin
(гПа)
dP
(гПа)
Po
(мм)
O2
(г/м3)
Тmin Tmax R s Состояние
почвы
18 20.02.18 180 (Ю) 20000 м    3/0 средняя, верхняя 
[As op|Ci sp]
-10.4 -14.1 74 -12  1027.3  -0.7  761  320           
21 20.02.18 180 (Ю) 20000 м    10/0 верхняя 
[Ci sp]
-11.8 -14.6 80 -14  1027.2  -0.1  761  322           
00 21.02.18 180 (Ю) 20000 м    8/0 верхняя 
[Ci sp]
-13.6 -15.6 85 -16  1026.9  -0.5  760  324  -15      50  равномерный
сухой снег
100% 
03 21.02.18 тихо ()   20000 м    10/0 средняя, верхняя 
[As trans|Ci sp]
-15.3 -17.3 85 -15  1026.3  -0.6  760  326  -16.1         
06 21.02.18 210 (ЮЗ) 20000 м    10/0 средняя, верхняя 
[As trans|Ci fib]
-8.8 -14.8 62 -9  1025.2  -0.8  759  317           
09 21.02.18 140 (ЮВ) 20000 м    10/0 средняя, верхняя 
[Ac As|Ci fib]
-6.4 -12.6 61 -8  1023.4  -1.7  758  314           
12 21.02.18 100 (В) 20000 м    10/0 средняя, верхняя 
[Ac As|Ci fib]
-6.8 -13.2 60 -8  1021.8  -1.5  757  314    -5.6       
15 21.02.18 090 (В) 20000 м    4/0 средняя, верхняя 
[As trans|Ci fib]
-8.5 -14 64 -10  1019.8  -2  755  315           
18 21.02.18 080 (В) 20000 м    4/0 средняя, верхняя 
[As trans|Ci fib]
-9.1 -14 68 -11  1018  -1.9  754  316           
21 21.02.18 080 (В) 20000 м    10/0 средняя, верхняя 
[As trans|Ci sp]
-8.1 -12.5 71 -12  1015.1  -2.8  752  313           
00 22.02.18 070 (В) 20000 м    10/0 средняя, верхняя 
[As trans|Ci sp]
-8.1 -12.3 72 -11  1012.5  -2.6  750  313  -9.7      49  равномерный
сухой снег
100% 
03 22.02.18 080 (В) 20000 м    10/0 средняя, верхняя 
[Ac As|Ci sp]
-8 -12.4 71 -10  1011  -1.4  749  312           
06 22.02.18 100 (В) 2000 м  снег{ливн. осадки}  10/0 средняя 
[As op]
-6.8 -9 84 -9  1010.4  -0.6  748  310           
09 22.02.18 200 (Ю) 4000 м  слаб. снег  10/0 средняя 
[As op]
-5.5 -8.7 78 -8  1010.8  0.5  749  309           
12 22.02.18 230 (ЮЗ) 10 км  слаб. ливневой снег  10/6 300 м кучево-дожд., средняя, верхняя 
[Cb cap|Ac trans|Ci sp]
-6.9 -10.5 75 -10  1013.3  2.3  751  311    -5.5     
15 22.02.18 220 (ЮЗ) 20000 м  в посл. час ливневой снег  3/0 верхняя 
[Ci sp]
-10.9 -13.4 82 -13  1016.2  2.8  753  317           
18 22.02.18 190 (Ю) 20000 м  {ливн. осадки}  4/0 верхняя 
[Ci fib]
-14.4 -16.2 86 -17  1018  1.5  754  322           
21 22.02.18 190 (Ю) 20000 м    3/0 верхняя 
[Ci fib]
-18.4 -20.7 82 -19  1018.6  0.4  754  327           
00 23.02.18 тихо ()   20000 м    8/0 верхняя 
[Ci sp]
-21.2 -23.9 79 -21  1018.3  -0.4  754  331  -21.4    0.0  52  равномерный
сухой снег
100% 
03 23.02.18 тихо ()   4000 м  слаб. ливневой снег  10/10 300 м кучево-дожд. 
[Cb cap]
-17.9 -20.3 81 -18  1017.4  -0.7  753  326           
06 23.02.18 200 (Ю) 10 км  слаб. ливневой снег  10/4 600 м кучево-дожд., средняя, верхняя 
[Cb cap|As trans|Ci fib]
-12 -16.1 72 -15  1016.9  -0.2  753  319           
09 23.02.18 210 (ЮЗ) 20000 м  позёмок{ливн. осадки}  10/4 600 м кучево-дожд., средняя, верхняя 
[Cb cap|As trans|Ci fib]
-10.3 -15.4 66 -13  1017.1  0.3  753  317           
12 23.02.18 200 (Ю) 20000 м  {ливн. осадки}  3/0 верхняя 
[Ci sp]
-12.9 -17 71 -15  1018.4  1.1  754  320    -10.2  0.4     
15 23.02.18 190 (Ю) 20000 м    ясно 
-18.3 -20.3 84 -19  1019.1  0.4  754  327           
18 23.02.18 190 (Ю) 20000 м    ясно 
-22.3 -24.9 79 -23  1019.4  0.1  755  333           
Время (UTC), дата Ветер
(°,м/с) 
Видим.   Явления Облачность Т
(°С)
Тd
(°С)
f(%) Тe
(°С)
Pmin
(гПа)
dP
(гПа)
Po
(мм)
O2
(г/м3)
Тmin Tmax R s Состояние
почвы

Для получения пояснительной информации подведите курсор к названию столбца.

ПОГОДА Пудино - архив

Всё, что Вы хотите узнать о погоде Пудино - удобно и подробно!

Выберите нужную дату (начиная с 1 января 2015* года) и нажмите кнопку "Найти".
Будут отображены архивные сводки погоды по пункту Пудино, начиная с указанной даты.


Отображать данные в формате CSV (для использования в таблицах Excel)


Внимание! Наш архив погоды предназначен исключительно для личного некоммерческого использования в познавательных целях. Если Вам необходимы официальные справки о состоянии погоды (для производственных, юридических, коммерческих и т.п. целей), обращайтесь в органы Росгидромета.

*Примечание: данная дата относится к архиву по метеостанциям СССР (Россия, СНГ, Балтия).
Архив по метеостанциям Зарубежной Европы и Азии (кроме Китая) хранится 10 дней, по другим регионам земного шара (Китай, Африка, Америка, Австралия, Океания) - 1 день.

Пудино - район местоположения метеостанции


Название, широта, долгота, высота метеостанции:
Пудино 57.5°ш. 79.4°д. 97 м над ур. моря [Российская Федерация]

Дополнительная информация

В oтличие oт бoльшинства пoгoдных сайтoв мы публикуем пoдрoбную метеoинфoрмацию в детальнoм прoфессиoнальнoм фoрмате.

Характеристики температуры и влажнoсти вoздуха измеряются на высoте 2 м в тени вдали oт зданий и деревьев.
Скoрoсть ветра измеряется на высoте 10 м (на урoвне рoста челoвека скoрoсть ветра ниже в 1.5-2 раза). Если метеoстанция нахoдится в гoрoде или в лесу, тo скoрoсть ветра занижена на 2-4 м/с пo сравнению с oткрытым местoм. Скoрoсть ветра над акватoриями крупных рек и oзёр, а также на вершинах хoлмoв на 2-5 м/с выше, чем в oбычных услoвиях.
Атмoсфернoе давление в разных тoчках местнoсти мoжет значительнo oтличаться oт давления на метеoстанции, в зависимoсти oт услoвий рельефа (при пoдъёме на 10 м давление пoнижается примернo на 1 мм рт.ст.).